BERGEN/FLESLAND_AFB current weather conditions

sailwx.info

Wind from 260 at 6 knots

Air temperature 8.0° C
Visibility: greater than 5.4 NM
Dewpoint 6.0° C
Present weather: Showers in the vicinity.

Last reported at 2016-Dec-04 20:50 UTC.
Time now 2016-Dec-04 22:23 UTC

Location: N 60°18' E 005°13'.
View on Google Maps.

See reports from other nearby stations

  
Tides and Currents Weather Stations Pressure Air Temp Water Temp Dewpoint Dewpoint Depression Visibility Wind Speed Wind Dir Waves Ship Positions
date/time (UTC)wind fromknots sea level pressurealtimeterstation pressurevisibilityair tempwater tempwave heightnotes
2016-Dec-04 21:20 280 7 5.4 8.0 Showers in the vicinity.
2016-Dec-04 20:50 260 6 5.4 8.0 Showers in the vicinity.
2016-Dec-04 20:20 260 8 5.4 8.0 Light drizzle.
2016-Dec-04 19:50 260 7 5.4 8.0
2016-Dec-04 19:20 250 6 5.4 8.0
2016-Dec-04 18:50 5.4 7.0
2016-Dec-04 18:20 260 6 5.4 8.0 Light rain drizzle.
2016-Dec-04 17:50 260 5 5.4 8.0
2016-Dec-04 17:20 260 6 5.4 8.0
2016-Dec-04 16:50 5.4 8.0
2016-Dec-04 16:20 270 6 5.4 8.0
2016-Dec-04 15:50 260 6 5.4 8.0
2016-Dec-04 15:20 260 6 5.4 8.0
2016-Dec-04 14:50 5.4 8.0
2016-Dec-04 14:20 5.4 8.0
2016-Dec-04 13:50 270 5 5.4 8.0
2016-Dec-04 13:20 260 5 5.4 8.0
2016-Dec-04 12:50 4.9 8.0 Light drizzle.
2016-Dec-04 12:20 5.4 8.0 Light drizzle.
2016-Dec-04 11:50 240 4 5.4 8.0
2016-Dec-04 11:20 240 4 5.4 8.0
2016-Dec-04 10:50 250 4 5.4 8.0
2016-Dec-04 10:20 250 6 5.4 8.0 Showers in the vicinity.
2016-Dec-04 09:50 260 5 5.4 8.0 Showers in the vicinity.
2016-Dec-04 09:20 260 5 5.4 8.0
2016-Dec-04 08:50 240 5 5.4 8.0
2016-Dec-04 08:20 240 5 5.4 8.0
2016-Dec-04 07:50 260 5 5.4 8.0
2016-Dec-04 07:20 260 4 5.4 8.0 Showers in the vicinity.
2016-Dec-04 06:50 290 5 5.4 8.0 Showers in the vicinity.
2016-Dec-04 06:20 290 4 5.4 7.0 Showers in the vicinity.
2016-Dec-04 05:50 290 4 5.4 7.0 Showers in the vicinity.
2016-Dec-04 05:20 5.4 6.0 Light rain.
2016-Dec-04 04:50 180 5 5.4 6.0 Light rain.
2016-Dec-04 04:20 170 6 5.4 5.0 Showers in the vicinity.
2016-Dec-04 03:50 180 5 4.9 6.0 Light rain.
2016-Dec-04 02:50 150 4 5.4 5.0 Light drizzle.
2016-Dec-04 01:50 150 5 5.4 5.0
2016-Dec-04 00:50 170 5 5.4 5.0 Showers in the vicinity.
2016-Dec-03 23:50 150 4 5.4 5.0 Light drizzle.
2016-Dec-03 23:20 140 4 5.4 5.0
2016-Dec-03 22:50 140 4 5.4 5.0 Showers in the vicinity.
2016-Dec-03 22:20 140 4 2.7 5.0 Light drizzle. Mist.
2016-Dec-03 21:50 130 4 4.9 5.0 Light drizzle.
2016-Dec-03 21:20 4.9 5.0 Light drizzle.
2016-Dec-03 20:50 130 2 5.4 5.0
2016-Dec-03 20:20 160 2 4.9 5.0 Light rain drizzle.
2016-Dec-03 19:50 150 2 5.4 5.0 Light drizzle.
2016-Dec-03 19:20 5.4 5.0 Light drizzle.
2016-Dec-03 18:50 5.4 5.0 Light drizzle.
2016-Dec-03 18:20 130 4 2.7 5.0 Drizzle rain. Mist.
2016-Dec-03 17:50 110 2 5.4 5.0 Showers in the vicinity.
2016-Dec-03 17:20 120 4 5.4 4.0 Light drizzle.
2016-Dec-03 16:50 160 6 5.4 4.0 Showers in the vicinity.
2016-Dec-03 16:20 130 2 5.4 4.0 Drizzle.
2016-Dec-03 15:50 150 5 5.4 4.0 Light drizzle.
2016-Dec-03 15:20 4.9 4.0
2016-Dec-03 14:50 170 4 5.4 4.0 Light rain showers.
2016-Dec-03 14:20 150 4 5.4 4.0 Showers in the vicinity.
2016-Dec-03 13:50 160 5 5.4 4.0 Light drizzle.
2016-Dec-03 13:20 150 4 5.4 4.0
2016-Dec-03 12:50 5.4 4.0
2016-Dec-03 12:20 5.4 4.0 Light rain showers.
2016-Dec-03 11:50 130 4 5.4 4.0 Showers in the vicinity.
2016-Dec-03 11:20 130 5 5.4 4.0
2016-Dec-03 10:50 5.4 4.0 Showers in the vicinity.
2016-Dec-03 10:20 140 6 5.4 4.0 Light drizzle.
2016-Dec-03 09:50 130 6 5.4 3.0 Drizzle.
2016-Dec-03 09:20 130 6 5.4 3.0
2016-Dec-03 08:50 140 6 5.4 3.0
2016-Dec-03 08:20 150 8 4.3 3.0 Light rain drizzle.
2016-Dec-03 07:50 140 8 1.9 3.0 Drizzle rain. Mist.
2016-Dec-03 07:20 140 6 2.7 2.0 Drizzle rain. Mist.
2016-Dec-03 06:50 150 7 5.4 2.0 Light rain.
2016-Dec-03 06:20 150 4 5.4 2.0
2016-Dec-03 05:50 160 4 5.4 2.0
2016-Dec-03 05:20 5.4 2.0 Light rain drizzle.
2016-Dec-03 04:50 150 4 5.4 1.0 Light rain drizzle.
2016-Dec-03 04:20 140 4 5.4 2.0 Light rain drizzle.
2016-Dec-03 03:50 130 2 5.4 2.0 Light rain drizzle.
2016-Dec-03 02:50 130 2 5.4 2.0 Light rain drizzle.
2016-Dec-03 01:50 120 4 5.4 1.0 Light rain drizzle.
2016-Dec-03 00:50 130 4 5.4 2.0 Light rain drizzle.
2016-Dec-02 23:50 120 2 5.4 2.0
2016-Dec-02 22:50 090 2 5.4 2.0
2016-Dec-02 22:20 130 5 5.4 1.0